Theta_e
314 319 325 322 323 322 322 321 322 311 310 310 310 310 313 310 313 321 323 325 326 326 323 325 326 327 329 331 332 331 331 330 329 329 329 329 328 326 326 325 325 324 324 323
314 319 318 319 321 317 322 323 320 314 309 310 310 310 311 307 308 312 319 323 325 325 325 325 325 326 327 328 330 332 331 331 331 331 330 330 328 327 326 325 325 324 325 323
317 317 315 319 320 323 317 324 322 321 309 308 308 312 310 307 308 310 311 315 321 323 323 325 325 323 325 326 328 330 330 330 331 331 331 330 330 328 326 325 325 324 323 323
319 316 314 316 318 320 321 315 311 310 311 321 308 314 311 308 307 305 310 311 314 319 321 322 323 322 321 322 326 327 328 329 330 331 332 332 329 327 326 326 326 324 323 323
317 314 315 315 316 314 318 314 313 310 310 307 306 310 312 305 307 307 307 311 314 314 316 317 318 319 319 320 323 325 327 328 329 330 330 331 331 329 326 326 326 324 323 322
312 310 313 313 311 315 310 313 313 312 310 316 310 312 310 314 309 308 307 311 315 315 314 314 313 315 318 320 322 325 327 328 329 330 330 330 331 330 329 325 326 325 323 322
313 312 310 308 309 311 313 315 317 318 315 315 303 308 314 308 305 308 310 313 315 316 314 314 313 312 312 314 319 322 325 327 328 329 329 329 331 330 329 327 326 326 324 322
318 318 312 309 308 311 314 315 316 318 315 311 302 309 310 306 310 308 308 310 312 314 314 314 314 313 312 312 316 319 320 323 326 328 328 328 330 331 330 326 326 326 323 322
318 318 310 309 310 309 310 314 308 309 296 305 306 305 306 304 304 305 308 308 310 312 313 314 313 312 311 312 315 318 320 323 326 327 327 328 329 330 328 326 327 326 323 322
310 311 309 310 310 310 309 311 314 313 312 307 306 304 309 307 307 306 305 308 312 312 311 311 311 312 311 311 314 317 317 319 322 324 325 326 327 328 329 328 328 324 323 321
306 307 306 306 310 312 312 312 313 312 308 310 307 308 301 306 306 306 306 308 310 311 311 310 310 309 310 310 312 313 312 313 312 311 311 311 314 326 329 329 327 324 322 319
305 305 307 310 306 308 310 311 312 316 313 306 307 308 303 302 302 304 306 307 308 309 309 310 310 310 310 309 310 311 311 311 311 311 310 310 310 323 327 326 323 322 321 317
305 306 305 310 308 306 310 309 311 310 310 313 315 317 303 303 304 306 307 309 310 310 310 309 310 309 309 310 310 311 311 311 310 311 311 312 316 323 325 325 322 321 320 316
308 307 308 311 309 308 310 310 310 312 315 313 313 314 307 307 307 306 307 308 309 310 310 309 309 309 308 310 310 310 310 310 311 312 311 314 315 318 322 322 321 319 318 310
307 305 305 307 306 307 309 310 308 312 313 314 314 312 311 310 309 310 306 308 308 309 310 310 310 310 309 309 310 310 310 310 312 312 314 316 318 321 321 320 318 318 311 301
304 303 305 304 306 306 307 309 310 309 310 311 311 309 306 308 308 307 311 309 308 309 309 309 310 310 310 310 310 310 309 310 313 312 315 315 316 319 318 318 317 312 302 298
305 304 302 299 302 304 303 307 308 310 310 309 310 310 307 305 306 309 310 310 309 311 310 310 310 310 311 311 310 310 309 309 311 314 315 314 315 316 316 315 311 303 298 297
308 302 299 299 300 306 308 304 306 308 308 309 310 309 307 308 309 308 309 309 309 310 310 310 310 310 310 310 310 310 309 309 310 313 314 314 314 314 314 310 303 298 297 297
303 304 301 304 296 304 306 304 303 304 306 305 305 306 307 308 307 308 309 309 310 310 309 309 309 309 309 310 310 310 309 308 309 311 313 314 314 313 309 304 299 297 297 295
304 305 305 293 302 306 306 304 305 304 309 305 304 304 303 303 304 307 307 308 308 308 308 308 308 308 309 309 309 310 310 308 308 309 310 311 310 308 304 300 298 297 296 294
299 301 308 297 304 302 303 303 305 307 307 304 305 305 304 302 305 306 307 308 308 309 309 309 309 308 308 308 308 308 309 309 309 308 308 308 306 304 300 298 297 296 295 293
305 304 301 296 299 309 303 303 308 306 304 307 306 305 305 304 305 306 307 308 309 309 308 308 308 308 307 307 307 308 308 308 308 307 307 306 304 302 298 296 296 295 294 293
307 304 305 307 306 304 304 303 304 305 304 305 306 306 306 307 307 307 307 307 307 308 309 309 308 307 307 307 307 307 307 307 307 306 305 305 303 300 297 296 295 294 293 292
299 301 303 304 302 303 302 302 303 304 303 302 302 302 303 303 303 303 303 304 304 304 305 306 308 308 307 306 306 306 306 305 305 304 304 304 302 300 297 295 294 294 293 292
300 300 298 298 301 301 301 301 302 301 301 301 301 301 301 301 301 301 301 302 302 303 303 304 305 306 306 305 304 304 304 304 304 303 302 302 300 298 296 294 294 293 292 291
299 300 303 302 301 302 301 301 301 301 302 301 301 302 302 302 301 301 302 302 303 303 304 304 304 305 305 305 303 302 303 302 302 301 301 301 300 299 296 294 293 292 290 289
Wind_Speed
7 4 12 11 13 1 11 6 10 2 1 2 5 7 12 9 13 16 20 26 28 30 27 28 28 28 28 28 26 25 24 22 23 23 22 21 20 17 16 15 13 12 11 9
4 6 5 10 7 5 11 11 7 3 0 3 4 9 12 10 11 24 25 26 30 29 31 30 30 31 32 31 31 29 27 25 24 24 22 22 19 20 17 15 11 14 13 12
6 3 16 10 10 10 3 15 7 4 0 1 4 12 10 6 17 18 22 27 29 32 34 32 33 33 34 36 35 33 31 30 28 26 24 24 23 21 19 19 15 18 17 16
2 6 12 12 7 11 8 4 4 5 1 4 6 6 9 6 11 12 28 27 31 33 34 32 34 34 36 36 36 35 33 33 31 30 30 29 25 25 22 21 20 17 19 18
4 8 14 12 7 9 2 9 5 2 4 3 4 4 7 5 10 11 22 33 32 35 35 35 36 35 34 33 35 35 35 35 34 33 33 31 31 26 24 25 24 20 20 20
2 1 7 8 7 15 11 8 10 6 4 6 7 7 6 11 8 5 18 35 37 36 37 38 34 33 35 34 35 36 37 37 36 35 35 34 34 31 29 28 26 21 20 21
3 2 2 3 8 4 13 11 3 3 2 8 5 7 16 6 8 10 15 35 38 37 36 37 37 36 38 39 40 40 40 40 37 36 35 34 35 34 32 29 28 24 20 21
8 6 8 6 6 8 12 4 5 5 4 4 4 10 6 10 21 13 16 21 23 37 37 37 39 38 40 40 41 39 37 37 36 36 35 34 35 35 33 33 30 25 21 21
7 6 2 2 4 7 6 7 7 4 1 1 5 7 8 8 7 10 20 17 24 28 30 42 39 40 41 40 40 38 36 35 35 35 36 37 37 38 35 33 31 25 22 23
7 5 5 4 3 5 5 8 4 2 4 5 5 5 7 3 12 10 10 26 32 28 27 30 33 41 40 39 39 37 36 36 35 36 37 37 38 38 38 34 33 28 26 25
6 4 2 7 9 12 3 6 3 1 3 4 2 6 7 13 10 8 12 15 21 26 27 28 28 27 32 36 38 37 37 37 35 35 36 38 39 36 35 37 33 28 25 25
6 5 4 9 2 10 4 6 9 6 5 2 2 9 6 7 7 7 12 10 12 15 17 21 23 25 30 36 37 36 34 32 32 33 34 36 36 35 35 38 34 28 26 24
8 3 4 3 2 3 13 7 14 2 4 7 4 13 2 4 4 8 11 10 12 12 15 17 19 24 30 34 34 32 32 31 31 30 30 29 30 35 36 35 33 27 26 26
13 5 7 10 6 8 9 16 14 15 4 8 15 31 6 7 9 5 8 9 9 12 16 15 16 21 28 31 31 31 32 29 27 27 26 26 28 34 36 34 30 26 28 29
4 6 4 2 4 5 9 17 16 22 28 12 32 23 22 18 19 29 11 16 17 18 20 16 16 19 23 28 29 29 27 26 26 26 25 27 28 38 38 32 28 29 32 30
2 2 4 2 1 7 6 17 25 27 22 21 17 21 6 8 23 24 31 29 25 29 26 20 16 18 23 27 29 28 27 27 27 26 28 28 31 36 34 33 30 34 33 30
10 7 4 5 1 5 4 20 17 19 21 25 17 32 5 8 16 28 35 35 33 31 26 24 24 24 23 26 28 29 28 27 28 27 30 32 34 37 36 34 36 35 32 29
13 6 3 3 3 6 7 4 15 21 18 26 24 19 7 21 29 28 31 27 25 27 29 26 21 20 23 27 29 28 29 29 29 31 33 35 38 38 38 38 36 35 32 29
2 6 2 5 5 6 11 6 7 9 17 18 19 19 24 29 17 33 38 34 33 31 27 26 24 24 23 25 27 29 31 31 32 34 36 37 38 39 39 39 38 35 32 29
4 7 5 3 8 12 2 8 11 7 18 13 21 16 17 14 6 14 13 16 19 22 26 27 22 20 20 21 24 30 33 36 37 37 37 38 39 40 40 39 38 35 31 28
4 1 15 3 6 7 6 5 11 8 5 1 2 13 7 6 10 5 3 5 10 10 11 15 17 19 19 20 21 26 33 38 36 37 38 39 40 41 41 39 37 34 32 31
7 7 4 2 1 14 9 5 16 5 2 1 1 2 4 11 9 8 11 11 9 11 14 15 15 15 16 17 18 23 29 31 37 38 40 42 43 43 42 40 38 36 34 32
2 7 6 11 6 1 14 3 6 1 1 1 1 2 2 2 2 1 3 7 8 8 10 12 13 13 13 12 14 18 20 25 31 37 42 44 45 46 45 43 41 39 37 35
3 4 4 4 2 2 9 5 7 5 5 5 4 2 3 3 4 4 5 5 7 10 9 9 9 9 8 8 12 14 16 19 23 29 38 43 46 47 46 45 43 42 39 36
3 7 6 1 2 3 3 8 9 9 8 7 7 6 6 5 5 6 6 6 6 7 9 8 7 7 6 6 8 11 13 16 20 24 30 37 44 48 49 48 45 42 38 32
6 6 5 4 9 6 4 11 12 10 10 10 8 8 8 8 8 8 8 8 8 9 9 10 9 8 8 7 5 7 10 14 18 21 25 30 38 45 48 47 45 42 34 30
Wind_Direction
159 176 198 181 189 286 151 173 228 170 356 154 231 253 258 226 227 223 214 216 218 217 216 216 217 216 216 220 224 224 224 223 223 222 219 220 225 231 232 239 246 244 250 257
119 227 159 141 167 125 190 184 206 261 58 177 307 267 258 215 230 226 221 219 222 219 223 220 219 219 220 221 224 226 228 227 227 229 229 229 231 236 241 246 253 254 252 254
167 162 148 153 172 193 154 203 186 193 187 187 25 277 262 248 242 234 232 232 230 225 226 223 222 220 221 222 223 225 227 228 228 231 232 233 230 231 236 240 241 245 250 253
245 140 152 151 185 190 199 192 131 115 305 230 171 277 249 228 238 223 224 222 229 229 230 229 228 227 224 225 226 227 228 230 229 233 236 236 240 239 238 240 244 248 247 250
176 165 163 172 165 159 241 161 155 68 180 314 214 225 266 164 240 240 227 222 228 231 230 230 229 230 231 228 228 228 229 230 232 235 238 238 241 238 241 242 241 250 247 248
101 174 174 171 160 165 131 72 39 357 59 267 182 211 218 228 220 219 237 230 225 232 232 235 235 234 234 231 229 229 230 230 233 237 238 234 235 238 234 239 241 246 252 252
112 144 324 155 99 162 126 136 123 146 196 236 271 184 239 240 225 215 218 232 229 231 234 234 234 232 231 228 228 228 230 232 232 234 235 232 230 233 239 241 244 242 252 253
164 183 188 170 159 166 164 153 143 175 207 263 351 228 260 212 233 234 246 250 239 238 234 235 236 235 233 228 226 227 229 232 232 232 234 233 232 231 231 241 245 241 249 255
156 199 16 149 119 149 164 211 147 124 81 16 214 292 298 256 264 240 236 240 243 245 242 238 237 236 234 228 226 226 228 230 231 233 233 233 233 231 230 236 235 234 240 249
188 116 184 204 131 28 148 142 192 83 199 250 279 276 244 336 242 225 226 237 248 248 247 248 247 242 236 230 227 226 228 230 232 234 236 236 236 233 228 229 228 236 240 249
147 98 20 130 211 168 133 157 94 47 205 187 282 258 221 225 220 235 249 251 256 270 269 264 260 252 236 229 226 227 228 229 232 236 238 238 235 232 227 220 223 223 233 247
195 117 142 196 301 177 195 181 172 185 196 248 134 261 248 229 237 264 271 287 292 288 283 269 264 253 234 226 225 227 230 234 238 240 237 233 227 223 220 220 227 219 232 227
176 143 96 87 350 3 202 188 203 156 72 214 190 261 236 256 294 295 297 327 332 321 303 282 256 239 229 225 225 228 235 240 241 237 231 224 214 215 219 209 219 222 224 216
150 172 165 181 181 140 189 185 191 200 203 210 221 243 248 293 305 287 268 296 313 322 310 285 254 240 228 224 226 231 235 236 236 232 221 216 216 214 202 219 208 229 217 206
188 179 133 91 139 143 171 179 178 199 220 200 241 247 241 260 287 292 284 297 311 308 305 292 261 244 232 230 232 234 237 238 233 226 216 209 212 209 205 206 215 221 206 203
209 199 111 163 298 187 179 193 193 207 216 233 254 272 174 228 248 263 281 291 297 288 289 281 270 256 234 234 236 239 237 232 226 218 212 209 213 207 206 211 219 209 204 204
174 141 117 230 170 116 310 210 197 209 207 220 228 243 138 220 228 248 258 266 273 274 279 283 277 267 251 241 239 240 236 230 226 221 212 210 211 212 209 211 210 206 205 208
187 132 103 161 57 203 250 176 198 205 212 225 243 254 203 242 252 260 265 264 263 267 270 272 274 274 259 243 237 235 233 230 225 219 214 211 212 212 210 208 208 208 208 211
69 144 125 149 192 290 263 176 145 165 245 228 238 248 251 256 263 268 265 263 265 273 278 276 272 267 263 255 243 236 232 228 224 221 217 213 212 210 208 208 208 210 212 214
77 182 150 126 176 223 138 174 160 111 272 190 215 224 227 189 222 253 280 278 280 276 278 281 277 271 263 259 248 239 236 230 227 224 220 216 214 212 211 211 212 213 215 218
94 94 211 186 225 283 247 99 143 160 254 323 312 257 209 191 237 241 293 326 322 325 310 295 288 282 278 265 252 241 236 235 235 229 224 221 218 216 215 216 216 217 217 218
145 155 191 70 152 255 164 115 184 195 152 102 259 92 228 237 233 257 288 310 315 315 295 288 286 284 280 275 264 253 247 245 238 233 229 224 222 219 218 218 218 218 220 222
158 179 175 185 204 210 183 117 169 137 114 96 130 76 76 105 109 290 356 355 360 345 318 306 296 291 279 273 268 264 262 252 246 238 232 228 225 223 221 220 219 220 221 222
288 184 156 97 255 116 176 177 182 167 145 117 103 78 74 68 48 25 16 360 337 337 332 320 316 316 314 292 277 269 263 259 253 245 238 233 228 226 223 223 223 224 224 223
203 131 147 23 301 112 194 189 171 147 143 133 123 111 91 77 51 22 14 6 352 334 330 333 328 321 306 293 283 277 271 261 255 250 244 237 230 227 225 225 226 226 227 229
199 167 165 199 167 137 145 180 171 161 152 148 141 123 97 82 68 50 36 27 13 359 351 349 348 336 317 304 291 277 270 263 259 255 250 242 236 230 228 227 227 225 224 223